Date String (YYYY-MM-DD hh:mm:ss) UTC,Instrument flags,Ambient pressure (hPa),Sample flow (lpm),Bypass flow (lpm),Sample temperature (°C),Ambient temperature (°C),ASC tube jacket temperature (°C),LED temperature (°C),Box temperature (°C),Sample RH (%),Span deviation,Mass concentration (μg/m³),Mass concentration (μg/m³),Mass concentration (μg/m³)
DateTimeUTC,F1_M11,P_M11,Q1_M11,Q2_M11,T1_M11,T2_M11,T3_M11,T4_M11,T5_M11,U1_M11,ZSPAN_M11,X0_M11,X2_M11,X1_M11
2022-03-07 04:00:00,,0829.9,5.00,0.00,22.7,21.9,00.0,31.6,24.5,09.6,0000.0,0005.14,0003.99,0003.86
2022-03-07 04:01:00,,0829.9,5.00,0.00,22.7,21.9,00.0,31.6,24.4,09.6,0000.0,0005.20,0004.02,0003.88
2022-03-07 04:02:00,,0829.9,5.00,0.00,22.7,21.8,00.0,31.6,24.4,09.6,0000.0,0005.28,0004.05,0003.90
2022-03-07 04:03:00,,0829.9,5.00,0.00,22.6,21.8,00.0,31.6,24.4,09.7,0000.0,0005.25,0004.04,0003.90
2022-03-07 04:04:00,,0829.9,5.00,0.00,22.6,21.8,00.0,31.6,24.4,09.7,0000.0,0005.24,0004.04,0003.90
2022-03-07 04:05:00,,0829.9,5.00,0.00,22.6,21.7,00.0,31.6,24.3,09.7,0000.0,0005.24,0004.03,0003.90
2022-03-07 04:06:00,,0829.9,5.00,0.00,22.6,21.7,00.0,31.6,24.3,09.7,0000.0,0005.36,0004.04,0003.89
2022-03-07 04:07:00,,0829.8,5.00,0.00,22.6,21.7,00.0,31.6,24.3,09.7,0000.0,0005.67,0004.05,0003.90
2022-03-07 04:08:00,,0829.8,5.00,0.00,22.5,21.7,00.0,31.6,24.3,09.8,0000.0,0005.53,0004.02,0003.89
2022-03-07 04:09:00,,0829.8,5.00,0.00,22.5,21.7,00.0,31.6,24.3,09.8,0000.0,0005.49,0004.01,0003.88
2022-03-07 04:10:00,,0829.9,5.01,0.00,22.6,21.9,00.0,31.6,24.3,09.8,0000.0,0005.45,0003.99,0003.86
2022-03-07 04:11:00,,0829.9,4.99,0.00,22.7,22.6,00.0,31.6,24.5,09.7,0000.0,0005.38,0003.97,0003.85
2022-03-07 04:12:00,,0829.9,5.00,0.00,22.8,23.3,00.0,31.7,24.8,09.6,0000.0,0005.37,0003.96,0003.83
2022-03-07 04:13:00,,0830.0,5.00,0.00,22.9,23.2,00.0,31.7,24.8,09.6,0000.0,0005.30,0003.93,0003.82
2022-03-07 04:14:00,,0829.9,5.00,0.00,22.9,23.0,00.0,31.7,24.8,09.5,0000.0,0005.34,0003.94,0003.82
2022-03-07 04:15:00,,0829.9,4.99,0.00,22.9,22.8,00.0,31.7,24.8,09.5,0000.0,0005.40,0003.96,0003.83
2022-03-07 04:16:00,,0829.9,5.00,0.00,22.9,22.7,00.0,31.7,24.7,09.5,0000.0,0005.44,0003.98,0003.85
2022-03-07 04:17:00,,0829.9,5.01,0.00,22.9,22.5,00.0,31.7,24.7,09.5,0000.0,0005.33,0003.99,0003.86
2022-03-07 04:18:00,,0829.9,5.00,0.00,22.8,22.4,00.0,31.7,24.7,09.4,0000.0,0005.00,0003.98,0003.86
2022-03-07 04:19:00,,0830.0,5.00,0.00,22.8,22.3,00.0,31.7,24.6,09.2,0000.0,0005.05,0003.98,0003.85
2022-03-07 04:20:00,,0830.0,5.00,0.00,22.8,22.2,00.0,31.7,24.6,09.1,0000.0,0005.35,0003.99,0003.84
2022-03-07 04:21:00,,0830.0,5.00,0.00,22.8,22.1,00.0,31.7,24.6,09.1,0000.0,0005.47,0003.98,0003.83
2022-03-07 04:22:00,,0830.0,5.00,0.00,22.8,22.1,00.0,31.7,24.5,09.0,0000.0,0005.46,0003.97,0003.82
2022-03-07 04:23:00,,0830.0,5.00,0.00,22.7,22.0,00.0,31.7,24.5,08.9,0000.0,0005.40,0003.94,0003.80
2022-03-07 04:24:00,,0830.0,5.00,0.00,22.7,21.9,00.0,31.7,24.5,08.9,0000.0,0005.35,0003.91,0003.78
2022-03-07 04:25:00,,0830.0,5.01,0.00,22.7,21.9,00.0,31.7,24.5,08.9,0000.0,0005.25,0003.88,0003.75
2022-03-07 04:26:00,,0830.0,5.00,0.00,22.7,21.9,00.0,31.7,24.4,08.9,0000.0,0005.19,0003.85,0003.73
2022-03-07 04:27:00,,0830.0,5.00,0.00,22.7,21.8,00.0,31.7,24.4,08.9,0000.0,0005.12,0003.83,0003.71
2022-03-07 04:28:00,,0829.9,5.00,0.00,22.7,21.8,00.0,31.7,24.4,08.7,0000.0,0005.05,0003.78,0003.67
2022-03-07 04:29:00,,0830.0,5.00,0.00,22.6,21.7,00.0,31.6,24.4,08.6,0000.0,0004.97,0003.73,0003.62
2022-03-07 04:30:00,,0830.0,5.00,0.00,22.6,21.7,00.0,31.6,24.3,08.4,0000.0,0004.89,0003.68,0003.57
2022-03-07 04:31:00,,0830.0,5.00,0.00,22.6,21.7,00.0,31.6,24.3,08.3,0000.0,0004.50,0003.61,0003.52
2022-03-07 04:32:00,,0830.0,5.00,0.00,22.6,22.0,00.0,31.6,24.3,08.2,0000.0,0004.33,0003.57,0003.48
2022-03-07 04:33:00,,0830.0,5.00,0.00,22.7,22.7,00.0,31.7,24.6,08.1,0000.0,0004.31,0003.55,0003.46
2022-03-07 04:34:00,,0830.0,5.00,0.00,22.8,23.3,00.0,31.7,24.8,08.1,0000.0,0004.21,0003.51,0003.43
2022-03-07 04:35:00,,0830.0,5.00,0.00,22.9,23.2,00.0,31.7,24.8,08.0,0000.0,0004.22,0003.50,0003.41
2022-03-07 04:36:00,,0830.0,4.99,0.00,22.9,22.9,00.0,31.7,24.8,08.1,0000.0,0004.25,0003.51,0003.40
2022-03-07 04:37:00,,0830.0,5.00,0.00,22.9,22.7,00.0,31.7,24.7,08.1,0000.0,0004.33,0003.51,0003.38
2022-03-07 04:38:00,,0830.0,5.00,0.00,22.9,22.5,00.0,31.7,24.7,08.2,0000.0,0004.45,0003.49,0003.35
2022-03-07 04:39:00,,0830.0,5.00,0.00,22.8,22.4,00.0,31.7,24.6,08.2,0000.0,0004.47,0003.51,0003.36
2022-03-07 04:40:00,,0830.0,5.00,0.00,22.8,22.3,00.0,31.7,24.6,08.3,0000.0,0004.51,0003.53,0003.39
2022-03-07 04:41:00,,0830.0,5.01,0.00,22.8,22.2,00.0,31.7,24.6,08.4,0000.0,0004.57,0003.58,0003.44
2022-03-07 04:42:00,,0830.0,5.00,0.00,22.8,22.1,00.0,31.7,24.6,08.4,0000.0,0004.73,0003.62,0003.49
2022-03-07 04:43:00,,0830.0,5.00,0.00,22.8,22.1,00.0,31.7,24.5,08.4,0000.0,0004.78,0003.66,0003.53
2022-03-07 04:44:00,,0830.1,5.00,0.00,22.7,22.0,00.0,31.7,24.5,08.5,0000.0,0004.85,0003.69,0003.56
2022-03-07 04:45:00,,0830.0,5.00,0.00,22.7,22.0,00.0,31.7,24.5,08.4,0000.0,0004.90,0003.71,0003.57
2022-03-07 04:46:00,,0830.0,5.00,0.00,22.7,21.9,00.0,31.7,24.5,08.2,0000.0,0004.90,0003.70,0003.56
2022-03-07 04:47:00,,0830.0,5.00,0.00,22.7,21.9,00.0,31.7,24.4,08.1,0000.0,0004.76,0003.64,0003.51
2022-03-07 04:48:00,,0830.1,5.01,0.00,22.7,21.8,00.0,31.7,24.4,07.9,0000.0,0004.63,0003.58,0003.46
2022-03-07 04:49:00,,0830.0,5.00,0.00,22.7,21.8,00.0,31.7,24.4,07.9,0000.0,0004.37,0003.53,0003.41
2022-03-07 04:50:00,,0830.0,5.00,0.00,22.6,21.8,00.0,31.6,24.4,07.8,0000.0,0004.27,0003.48,0003.37
2022-03-07 04:51:00,,0830.1,5.00,0.00,22.6,21.7,00.0,31.6,24.3,07.8,0000.0,0004.25,0003.44,0003.32
2022-03-07 04:52:00,,0830.1,4.99,0.00,22.6,21.7,00.0,31.6,24.3,07.9,0000.0,0004.25,0003.40,0003.28
2022-03-07 04:53:00,,0830.0,5.00,0.00,22.6,21.7,00.0,31.6,24.3,07.9,0000.0,0004.11,0003.37,0003.24
2022-03-07 04:54:00,,0830.0,5.00,0.00,22.6,21.7,00.0,31.6,24.3,07.9,0000.0,0004.20,0003.36,0003.20
2022-03-07 04:55:00,,0830.1,5.00,0.00,22.6,21.8,00.0,31.6,24.3,07.9,0000.0,0004.07,0003.30,0003.14
2022-03-07 04:56:00,,0830.0,4.99,0.00,22.7,22.4,00.0,31.6,24.5,07.8,0000.0,0004.03,0003.27,0003.11
2022-03-07 04:57:00,,0830.0,5.00,0.00,22.8,23.1,00.0,31.7,24.7,07.8,0000.0,0004.07,0003.28,0003.10
2022-03-07 04:58:00,,0830.1,5.00,0.00,22.9,23.3,00.0,31.7,24.9,07.7,0000.0,0004.13,0003.31,0003.12
2022-03-07 04:59:00,,0830.1,5.01,0.00,22.9,23.1,00.0,31.7,24.8,07.8,0000.0,0004.08,0003.31,0003.13
